Time,TemperatureF,DewpointF,PressureIn,WindDirection,WindDirectionDegrees,WindSpeedMPH,WindSpeedGustMPH,Humidity,HourlyPrecipIn,Conditions,Clouds,dailyrainin,SoftwareType,DateUTC
2013-10-15 00:00:00,66.2,61.6,30.09,NNE,23,9.0,18.0,85,0.00,,,0.00,WUHU216DAVISVP2,2013-10-15 04:00:00,
2013-10-15 00:01:00,66.2,61.6,30.08,NNW,333,4.0,18.0,85,0.00,,,0.00,WUHU216DAVISVP2,2013-10-15 04:01:00,
2013-10-15 00:02:00,66.2,61.9,30.08,North,10,9.0,18.0,86,0.00,,,0.00,WUHU216DAVISVP2,2013-10-15 04:02:00,
2013-10-15 00:07:00,66.1,61.8,30.08,North,356,9.0,18.0,86,0.00,,,0.00,WUHU216DAVISVP2,2013-10-15 04:07:00,
2013-10-15 00:12:00,66.0,61.7,30.08,NNW,340,9.0,18.0,86,0.00,,,0.00,WUHU216DAVISVP2,2013-10-15 04:12:00,
2013-10-15 00:17:00,66.0,61.7,30.08,NNE,13,11.0,18.0,86,0.00,,,0.00,WUHU216DAVISVP2,2013-10-15 04:17:00,
2013-10-15 00:22:00,66.0,61.7,30.08,NNW,335,5.0,17.0,86,0.00,,,0.00,WUHU216DAVISVP2,2013-10-15 04:22:00,
2013-10-15 00:27:00,65.9,61.6,30.08,NNE,21,14.0,17.0,86,0.00,,,0.00,WUHU216DAVISVP2,2013-10-15 04:27:00,
2013-10-15 00:30:00,65.9,61.6,30.08,North,0,9.0,17.0,86,0.00,,,0.00,WUHU216DAVISVP2,2013-10-15 04:30:00,
2013-10-15 00:32:00,65.8,61.5,30.08,North,353,6.0,17.0,86,0.00,,,0.00,WUHU216DAVISVP2,2013-10-15 04:32:00,
2013-10-15 00:37:00,65.8,61.8,30.08,NW,321,3.0,16.0,87,0.00,,,0.00,WUHU216DAVISVP2,2013-10-15 04:37:00,
2013-10-15 00:42:00,65.7,61.7,30.08,NNW,330,4.0,16.0,87,0.00,,,0.00,WUHU216DAVISVP2,2013-10-15 04:42:00,
2013-10-15 00:47:00,65.6,61.6,30.07,NW,326,10.0,16.0,87,0.00,,,0.00,WUHU216DAVISVP2,2013-10-15 04:47:00,
2013-10-15 00:52:00,65.6,61.6,30.07,NNW,332,3.0,16.0,87,0.00,,,0.00,WUHU216DAVISVP2,2013-10-15 04:52:00,
2013-10-15 00:57:00,65.5,61.5,30.07,North,7,9.0,16.0,87,0.00,,,0.00,WUHU216DAVISVP2,2013-10-15 04:57:00,
2013-10-15 01:00:00,65.5,61.5,30.07,North,0,8.0,16.0,87,0.00,,,0.00,WUHU216DAVISVP2,2013-10-15 05:00:00,
2013-10-15 01:02:00,65.5,61.5,30.07,NNE,20,7.0,16.0,87,0.00,,,0.00,WUHU216DAVISVP2,2013-10-15 05:02:00,
2013-10-15 01:07:00,65.4,61.4,30.07,North,1,4.0,16.0,87,0.00,,,0.00,WUHU216DAVISVP2,2013-10-15 05:07:00,
2013-10-15 01:12:00,65.4,61.4,30.07,NNE,13,9.0,16.0,87,0.00,,,0.00,WUHU216DAVISVP2,2013-10-15 05:12:00,
2013-10-15 01:17:00,65.3,61.3,30.07,NW,326,11.0,16.0,87,0.00,,,0.00,WUHU216DAVISVP2,2013-10-15 05:17:00,
2013-10-15 01:22:00,65.2,61.2,30.07,NW,312,5.0,14.0,87,0.00,,,0.00,WUHU216DAVISVP2,2013-10-15 05:22:00,
2013-10-15 01:27:00,65.2,61.2,30.06,NNW,328,10.0,14.0,87,0.00,,,0.00,WUHU216DAVISVP2,2013-10-15 05:27:00,
2013-10-15 01:30:00,65.1,61.1,30.06,NW,315,7.0,14.0,87,0.00,,,0.00,WUHU216DAVISVP2,2013-10-15 05:30:00,
2013-10-15 01:32:00,65.1,61.1,30.06,North,352,10.0,14.0,87,0.00,,,0.00,WUHU216DAVISVP2,2013-10-15 05:32:00,
2013-10-15 01:37:00,65.1,61.1,30.06,North,352,9.0,13.0,87,0.00,,,0.00,WUHU216DAVISVP2,2013-10-15 05:37:00,
2013-10-15 01:42:00,65.0,61.0,30.06,NW,319,5.0,13.0,87,0.00,,,0.00,WUHU216DAVISVP2,2013-10-15 05:42:00,
2013-10-15 01:47:00,65.0,61.0,30.06,NW,324,10.0,14.0,87,0.00,,,0.00,WUHU216DAVISVP2,2013-10-15 05:47:00,
2013-10-15 01:52:00,65.0,61.0,30.06,NNE,16,7.0,14.0,87,0.00,,,0.00,WUHU216DAVISVP2,2013-10-15 05:52:00,
2013-10-15 01:57:00,64.9,60.9,30.06,NNW,328,4.0,14.0,87,0.00,,,0.00,WUHU216DAVISVP2,2013-10-15 05:57:00,
2013-10-15 02:00:00,64.9,61.3,30.06,NW,315,7.0,15.0,88,0.00,,,0.00,WUHU216DAVISVP2,2013-10-15 06:00:00,
2013-10-15 02:02:00,64.9,61.3,30.05,NNW,339,6.0,15.0,88,0.00,,,0.00,WUHU216DAVISVP2,2013-10-15 06:02:00,
2013-10-15 02:07:00,64.9,61.3,30.05,North,359,10.0,15.0,88,0.00,,,0.00,WUHU216DAVISVP2,2013-10-15 06:07:00,
2013-10-15 02:12:00,64.8,61.2,30.05,NW,316,8.0,15.0,88,0.00,,,0.00,WUHU216DAVISVP2,2013-10-15 06:12:00,
2013-10-15 02:17:00,64.8,61.2,30.05,NW,323,5.0,17.0,88,0.00,,,0.00,WUHU216DAVISVP2,2013-10-15 06:17:00,
2013-10-15 02:22:00,64.8,61.2,30.05,NNE,16,7.0,17.0,88,0.00,,,0.00,WUHU216DAVISVP2,2013-10-15 06:22:00,
2013-10-15 02:27:00,64.7,61.1,30.05,North,352,13.0,19.0,88,0.00,,,0.00,WUHU216DAVISVP2,2013-10-15 06:27:00,
2013-10-15 02:30:00,64.6,61.0,30.05,North,0,8.0,19.0,88,0.00,,,0.00,WUHU216DAVISVP2,2013-10-15 06:30:00,
2013-10-15 02:32:00,64.6,61.0,30.05,NW,311,5.0,19.0,88,0.00,,,0.00,WUHU216DAVISVP2,2013-10-15 06:32:00,
2013-10-15 02:37:00,64.5,61.2,30.04,NNE,13,11.0,19.0,89,0.00,,,0.00,WUHU216DAVISVP2,2013-10-15 06:37:00,
2013-10-15 02:42:00,64.5,61.2,30.04,NNE,20,8.0,19.0,89,0.00,,,0.00,WUHU216DAVISVP2,2013-10-15 06:42:00,
2013-10-15 02:47:00,64.4,61.1,30.04,NNW,337,6.0,18.0,89,0.00,,,0.00,WUHU216DAVISVP2,2013-10-15 06:47:00,
2013-10-15 02:54:00,64.4,61.1,30.04,North,4,8.0,18.0,89,0.00,,,0.00,WUHU216DAVISVP2,2013-10-15 06:54:00,
2013-10-15 02:59:00,64.3,61.0,30.04,NNW,330,11.0,17.0,89,0.00,,,0.00,WUHU216DAVISVP2,2013-10-15 06:59:00,
2013-10-15 03:00:00,64.3,61.0,30.04,North,0,8.0,17.0,89,0.00,,,0.00,WUHU216DAVISVP2,2013-10-15 07:00:00,
2013-10-15 03:04:00,64.3,61.0,30.04,NNW,331,7.0,16.0,89,0.00,,,0.00,WUHU216DAVISVP2,2013-10-15 07:04:00,
2013-10-15 03:09:00,64.2,60.9,30.04,NW,321,6.0,15.0,89,0.00,,,0.00,WUHU216DAVISVP2,2013-10-15 07:09:00,
2013-10-15 03:14:00,64.1,60.8,30.04,NW,326,3.0,15.0,89,0.00,,,0.00,WUHU216DAVISVP2,2013-10-15 07:14:00,
2013-10-15 03:19:00,64.0,61.0,30.03,NNW,338,6.0,13.0,90,0.00,,,0.00,WUHU216DAVISVP2,2013-10-15 07:19:00,
2013-10-15 03:24:00,64.0,61.0,30.03,NW,311,5.0,14.0,90,0.00,,,0.00,WUHU216DAVISVP2,2013-10-15 07:24:00,
2013-10-15 03:29:00,64.0,61.0,30.03,North,1,8.0,14.0,90,0.00,,,0.00,WUHU216DAVISVP2,2013-10-15 07:29:00,
2013-10-15 03:30:00,63.9,60.9,30.03,NW,315,6.0,14.0,90,0.00,,,0.00,WUHU216DAVISVP2,2013-10-15 07:30:00,
2013-10-15 03:34:00,63.9,60.9,30.03,NNE,25,7.0,14.0,90,0.00,,,0.00,WUHU216DAVISVP2,2013-10-15 07:34:00,
2013-10-15 03:39:00,63.9,60.9,30.03,NW,314,6.0,14.0,90,0.00,,,0.00,WUHU216DAVISVP2,2013-10-15 07:39:00,
2013-10-15 03:44:00,63.8,60.8,30.03,NNW,347,4.0,13.0,90,0.00,,,0.00,WUHU216DAVISVP2,2013-10-15 07:44:00,
2013-10-15 03:49:00,63.8,60.8,30.03,NNE,17,7.0,13.0,90,0.00,,,0.00,WUHU216DAVISVP2,2013-10-15 07:49:00,
2013-10-15 03:54:00,63.7,60.7,30.03,NW,317,9.0,17.0,90,0.00,,,0.00,WUHU216DAVISVP2,2013-10-15 07:54:00,
2013-10-15 03:59:00,63.7,61.0,30.03,NW,317,4.0,17.0,91,0.00,,,0.00,WUHU216DAVISVP2,2013-10-15 07:59:00,
2013-10-15 04:00:00,63.7,61.0,30.03,North,0,7.0,17.0,91,0.00,,,0.00,WUHU216DAVISVP2,2013-10-15 08:00:00,
2013-10-15 04:04:00,63.6,60.9,30.03,NNE,21,9.0,18.0,91,0.00,,,0.00,WUHU216DAVISVP2,2013-10-15 08:04:00,
2013-10-15 04:09:00,63.5,60.8,30.03,NNE,32,10.0,18.0,91,0.00,,,0.00,WUHU216DAVISVP2,2013-10-15 08:09:00,
2013-10-15 04:14:00,63.4,60.7,30.03,NNE,17,11.0,22.0,91,0.00,,,0.00,WUHU216DAVISVP2,2013-10-15 08:14:00,
2013-10-15 04:19:00,63.2,60.5,30.03,NW,305,8.0,22.0,91,0.00,,,0.00,WUHU216DAVISVP2,2013-10-15 08:19:00,
2013-10-15 04:24:00,63.1,60.4,30.03,NW,321,11.0,22.0,91,0.00,,,0.00,WUHU216DAVISVP2,2013-10-15 08:24:00,
2013-10-15 04:29:00,62.9,60.5,30.03,NW,323,9.0,22.0,92,0.00,,,0.00,WUHU216DAVISVP2,2013-10-15 08:29:00,
2013-10-15 04:30:00,62.9,60.5,30.03,North,0,10.0,22.0,92,0.00,,,0.00,WUHU216DAVISVP2,2013-10-15 08:30:00,
2013-10-15 04:34:00,62.8,60.4,30.03,North,10,12.0,18.0,92,0.00,,,0.00,WUHU216DAVISVP2,2013-10-15 08:34:00,
2013-10-15 04:39:00,62.7,60.3,30.03,NW,318,10.0,18.0,92,0.00,,,0.00,WUHU216DAVISVP2,2013-10-15 08:39:00,
2013-10-15 04:44:00,62.7,60.3,30.03,NE,43,9.0,18.0,92,0.00,,,0.00,WUHU216DAVISVP2,2013-10-15 08:44:00,
2013-10-15 04:49:00,62.8,60.4,30.03,NNE,20,11.0,16.0,92,0.00,,,0.00,WUHU216DAVISVP2,2013-10-15 08:49:00,
2013-10-15 04:50:00,62.8,60.4,30.03,NNW,347,11.0,16.0,92,0.00,,,0.00,WUHU216DAVISVP2,2013-10-15 08:50:00,
2013-10-15 04:55:00,62.8,60.7,30.03,NE,38,2.0,17.0,93,0.00,,,0.00,WUHU216DAVISVP2,2013-10-15 08:55:00,
2013-10-15 05:00:00,62.9,60.5,30.04,NE,47,12.0,19.0,92,0.00,,,0.00,WUHU216DAVISVP2,2013-10-15 09:00:00,
2013-10-15 05:05:00,62.9,60.5,30.04,North,11,18.0,21.0,92,0.00,,,0.00,WUHU216DAVISVP2,2013-10-15 09:05:00,
2013-10-15 05:10:00,62.9,60.5,30.04,NNW,340,8.0,21.0,92,0.00,,,0.00,WUHU216DAVISVP2,2013-10-15 09:10:00,
2013-10-15 05:15:00,62.9,60.5,30.04,North,351,9.0,21.0,92,0.00,,,0.00,WUHU216DAVISVP2,2013-10-15 09:15:00,
2013-10-15 05:20:00,62.8,60.4,30.04,North,8,14.0,21.0,92,0.00,,,0.00,WUHU216DAVISVP2,2013-10-15 09:20:00,
2013-10-15 05:25:00,62.8,60.4,30.04,NE,49,4.0,16.0,92,0.00,,,0.00,WUHU216DAVISVP2,2013-10-15 09:25:00,
2013-10-15 05:30:00,62.8,60.4,30.04,NW,307,6.0,14.0,92,0.00,,,0.00,WUHU216DAVISVP2,2013-10-15 09:30:00,
2013-10-15 05:35:00,62.7,60.3,30.04,NW,323,3.0,14.0,92,0.00,,,0.00,WUHU216DAVISVP2,2013-10-15 09:35:00,
2013-10-15 05:40:00,62.7,60.3,30.04,North,7,8.0,13.0,92,0.00,,,0.00,WUHU216DAVISVP2,2013-10-15 09:40:00,
2013-10-15 05:45:00,62.6,60.2,30.04,NNW,335,8.0,15.0,92,0.00,,,0.00,WUHU216DAVISVP2,2013-10-15 09:45:00,
2013-10-15 05:50:00,62.6,60.2,30.05,North,4,5.0,15.0,92,0.00,,,0.00,WUHU216DAVISVP2,2013-10-15 09:50:00,
2013-10-15 05:55:00,62.6,60.2,30.05,NNE,28,10.0,15.0,92,0.00,,,0.00,WUHU216DAVISVP2,2013-10-15 09:55:00,
2013-10-15 06:00:00,62.6,60.2,30.05,North,356,7.0,14.0,92,0.00,,,0.00,WUHU216DAVISVP2,2013-10-15 10:00:00,
2013-10-15 06:05:00,62.5,60.4,30.05,NNE,29,10.0,15.0,93,0.00,,,0.00,WUHU216DAVISVP2,2013-10-15 10:05:00,
2013-10-15 06:10:00,62.4,60.3,30.05,North,3,10.0,18.0,93,0.00,,,0.00,WUHU216DAVISVP2,2013-10-15 10:10:00,
2013-10-15 06:15:00,62.4,60.3,30.04,NNW,340,10.0,18.0,93,0.00,,,0.00,WUHU216DAVISVP2,2013-10-15 10:15:00,
2013-10-15 06:20:00,62.3,60.2,30.04,NNE,23,12.0,18.0,93,0.00,,,0.00,WUHU216DAVISVP2,2013-10-15 10:20:00,
2013-10-15 06:25:00,62.4,60.3,30.04,NNE,23,5.0,16.0,93,0.00,,,0.00,WUHU216DAVISVP2,2013-10-15 10:25:00,
2013-10-15 06:30:00,62.4,60.3,30.04,NNW,328,9.0,14.0,93,0.00,,,0.00,WUHU216DAVISVP2,2013-10-15 10:30:00,
2013-10-15 06:35:00,62.4,60.3,30.04,North,350,3.0,13.0,93,0.00,,,0.00,WUHU216DAVISVP2,2013-10-15 10:35:00,
2013-10-15 06:40:00,62.4,60.3,30.04,NW,306,4.0,14.0,93,0.00,,,0.00,WUHU216DAVISVP2,2013-10-15 10:40:00,
2013-10-15 06:45:00,62.5,60.4,30.05,NW,316,3.0,14.0,93,0.00,,,0.00,WUHU216DAVISVP2,2013-10-15 10:45:00,
2013-10-15 06:50:00,62.5,60.4,30.04,North,353,9.0,14.0,93,0.00,,,0.00,WUHU216DAVISVP2,2013-10-15 10:50:00,
2013-10-15 06:55:00,62.5,60.1,30.04,NW,308,7.0,14.0,92,0.00,,,0.00,WUHU216DAVISVP2,2013-10-15 10:55:00,
2013-10-15 07:00:00,62.5,60.1,30.05,West,267,4.0,14.0,92,0.00,,,0.00,WUHU216DAVISVP2,2013-10-15 11:00:00,
2013-10-15 07:05:00,62.5,60.1,30.05,NNW,335,8.0,14.0,92,0.00,,,0.00,WUHU216DAVISVP2,2013-10-15 11:05:00,
2013-10-15 07:10:00,62.5,60.1,30.05,NW,312,8.0,12.0,92,0.00,,,0.00,WUHU216DAVISVP2,2013-10-15 11:10:00,
2013-10-15 07:15:00,62.4,60.0,30.05,WNW,303,7.0,12.0,92,0.00,,,0.00,WUHU216DAVISVP2,2013-10-15 11:15:00,
2013-10-15 07:20:00,62.3,59.9,30.05,NW,311,6.0,13.0,92,0.00,,,0.00,WUHU216DAVISVP2,2013-10-15 11:20:00,
2013-10-15 07:25:00,62.3,59.9,30.05,NNW,340,6.0,14.0,92,0.00,,,0.00,WUHU216DAVISVP2,2013-10-15 11:25:00,
2013-10-15 07:30:00,62.3,59.9,30.05,North,355,5.0,14.0,92,0.00,,,0.00,WUHU216DAVISVP2,2013-10-15 11:30:00,
2013-10-15 07:35:00,62.2,59.8,30.05,NNW,343,9.0,16.0,92,0.00,,,0.00,WUHU216DAVISVP2,2013-10-15 11:35:00,
2013-10-15 07:40:00,62.2,59.8,30.06,NW,325,4.0,16.0,92,0.00,,,0.00,WUHU216DAVISVP2,2013-10-15 11:40:00,
2013-10-15 07:45:00,62.2,59.8,30.05,NNW,340,4.0,16.0,92,0.00,,,0.00,WUHU216DAVISVP2,2013-10-15 11:45:00,
2013-10-15 07:50:00,62.2,59.8,30.05,North,3,4.0,16.0,92,0.00,,,0.00,WUHU216DAVISVP2,2013-10-15 11:50:00,
2013-10-15 07:55:00,62.2,59.8,30.06,NNE,23,6.0,16.0,92,0.00,,,0.00,WUHU216DAVISVP2,2013-10-15 11:55:00,
2013-10-15 08:00:00,62.1,59.7,30.06,North,360,6.0,15.0,92,0.00,,,0.00,WUHU216DAVISVP2,2013-10-15 12:00:00,
2013-10-15 08:05:00,62.1,59.7,30.06,North,350,6.0,15.0,92,0.00,,,0.00,WUHU216DAVISVP2,2013-10-15 12:05:00,
2013-10-15 08:10:00,62.1,59.7,30.06,NNE,27,8.0,14.0,92,0.00,,,0.00,WUHU216DAVISVP2,2013-10-15 12:10:00,
2013-10-15 08:15:00,62.1,59.7,30.06,WNW,302,5.0,15.0,92,0.00,,,0.00,WUHU216DAVISVP2,2013-10-15 12:15:00,
2013-10-15 08:20:00,62.0,60.0,30.06,NW,315,4.0,15.0,93,0.00,,,0.00,WUHU216DAVISVP2,2013-10-15 12:20:00,
2013-10-15 08:25:00,62.0,59.9,30.06,WNW,290,5.0,15.0,93,0.00,,,0.00,WUHU216DAVISVP2,2013-10-15 12:25:00,
2013-10-15 08:30:00,62.0,59.9,30.07,NE,35,3.0,15.0,93,0.00,,,0.00,WUHU216DAVISVP2,2013-10-15 12:30:00,
2013-10-15 08:35:00,61.9,59.8,30.07,NNE,25,4.0,16.0,93,0.00,,,0.00,WUHU216DAVISVP2,2013-10-15 12:35:00,
2013-10-15 08:40:00,61.9,59.8,30.07,NW,311,3.0,16.0,93,0.00,,,0.00,WUHU216DAVISVP2,2013-10-15 12:40:00,
2013-10-15 08:45:00,61.8,59.7,30.07,North,10,6.0,16.0,93,0.00,,,0.00,WUHU216DAVISVP2,2013-10-15 12:45:00,
2013-10-15 08:50:00,61.8,59.8,30.07,NW,305,4.0,16.0,93,0.00,,,0.00,WUHU216DAVISVP2,2013-10-15 12:50:00,
2013-10-15 08:55:00,61.7,59.6,30.07,NNE,20,6.0,13.0,93,0.00,,,0.00,WUHU216DAVISVP2,2013-10-15 12:55:00,
2013-10-15 09:00:00,61.6,59.5,30.07,NNE,13,3.0,14.0,93,0.00,,,0.00,WUHU216DAVISVP2,2013-10-15 13:00:00,
2013-10-15 09:05:00,61.6,59.8,30.07,NNW,333,3.0,14.0,94,0.00,,,0.00,WUHU216DAVISVP2,2013-10-15 13:05:00,
2013-10-15 09:10:00,61.6,59.8,30.07,NNW,340,5.0,14.0,94,0.00,,,0.00,WUHU216DAVISVP2,2013-10-15 13:10:00,
2013-10-15 09:15:00,61.5,59.8,30.07,NW,321,5.0,14.0,94,0.00,,,0.00,WUHU216DAVISVP2,2013-10-15 13:15:00,
2013-10-15 09:20:00,61.4,59.6,30.08,North,354,2.0,14.0,94,0.00,,,0.00,WUHU216DAVISVP2,2013-10-15 13:20:00,
2013-10-15 09:25:00,61.5,59.7,30.07,NNW,340,3.0,14.0,94,0.00,,,0.00,WUHU216DAVISVP2,2013-10-15 13:25:00,
2013-10-15 09:30:00,61.6,59.8,30.07,WNW,288,3.0,14.0,94,0.00,,,0.00,WUHU216DAVISVP2,2013-10-15 13:30:00,
2013-10-15 09:35:00,61.6,59.8,30.07,North,360,10.0,12.0,94,0.00,,,0.00,WUHU216DAVISVP2,2013-10-15 13:35:00,
2013-10-15 09:40:00,61.7,59.9,30.07,North,2,3.0,12.0,94,0.00,,,0.00,WUHU216DAVISVP2,2013-10-15 13:40:00,
2013-10-15 09:45:00,61.9,60.1,30.07,WNW,303,7.0,12.0,94,0.00,,,0.00,WUHU216DAVISVP2,2013-10-15 13:45:00,
2013-10-15 09:50:00,62.1,60.0,30.07,NNW,338,9.0,12.0,93,0.00,,,0.00,WUHU216DAVISVP2,2013-10-15 13:50:00,
2013-10-15 09:55:00,62.2,60.2,30.07,NNW,330,4.0,11.0,93,0.00,,,0.00,WUHU216DAVISVP2,2013-10-15 13:55:00,
2013-10-15 10:00:00,62.4,60.0,30.07,NNW,330,13.0,13.0,92,0.00,,,0.00,WUHU216DAVISVP2,2013-10-15 14:00:00,
2013-10-15 10:05:00,62.4,60.0,30.07,North,2,10.0,14.0,92,0.00,,,0.00,WUHU216DAVISVP2,2013-10-15 14:05:00,
2013-10-15 10:10:00,62.4,60.0,30.07,NNE,24,8.0,14.0,92,0.00,,,0.00,WUHU216DAVISVP2,2013-10-15 14:10:00,
2013-10-15 10:15:00,62.6,59.9,30.07,NNW,346,12.0,17.0,91,0.00,,,0.00,WUHU216DAVISVP2,2013-10-15 14:15:00,
2013-10-15 10:20:00,62.7,60.0,30.07,NNE,30,6.0,17.0,91,0.00,,,0.00,WUHU216DAVISVP2,2013-10-15 14:20:00,
2013-10-15 10:25:00,62.9,60.2,30.07,NW,313,7.0,17.0,91,0.00,,,0.00,WUHU216DAVISVP2,2013-10-15 14:25:00,
2013-10-15 10:30:00,63.1,60.1,30.06,North,8,7.0,17.0,90,0.00,,,0.00,WUHU216DAVISVP2,2013-10-15 14:30:00,
2013-10-15 10:35:00,63.3,60.3,30.06,NNW,340,5.0,16.0,90,0.00,,,0.00,WUHU216DAVISVP2,2013-10-15 14:35:00,
2013-10-15 10:40:00,63.2,60.2,30.06,NW,310,3.0,18.0,90,0.00,,,0.00,WUHU216DAVISVP2,2013-10-15 14:40:00,
2013-10-15 10:45:00,63.2,60.2,30.06,North,1,4.0,18.0,90,0.00,,,0.00,WUHU216DAVISVP2,2013-10-15 14:45:00,
2013-10-15 10:50:00,63.2,59.9,30.07,NNE,17,5.0,18.0,89,0.00,,,0.00,WUHU216DAVISVP2,2013-10-15 14:50:00,
2013-10-15 10:55:00,63.3,60.3,30.06,NNW,329,11.0,18.0,90,0.00,,,0.00,WUHU216DAVISVP2,2013-10-15 14:55:00,
2013-10-15 11:00:00,63.4,60.1,30.06,North,6,11.0,18.0,89,0.00,,,0.00,WUHU216DAVISVP2,2013-10-15 15:00:00,
2013-10-15 11:05:00,63.7,60.4,30.06,NNE,12,5.0,18.0,89,0.00,,,0.00,WUHU216DAVISVP2,2013-10-15 15:05:00,
2013-10-15 11:10:00,64.0,60.7,30.06,North,359,8.0,18.0,89,0.00,,,0.00,WUHU216DAVISVP2,2013-10-15 15:10:00,
2013-10-15 11:15:00,64.1,60.5,30.06,North,356,6.0,16.0,88,0.00,,,0.00,WUHU216DAVISVP2,2013-10-15 15:15:00,
2013-10-15 11:20:00,64.2,60.6,30.05,NNW,338,7.0,16.0,88,0.00,,,0.00,WUHU216DAVISVP2,2013-10-15 15:20:00,
2013-10-15 11:25:00,64.3,60.7,30.05,NW,305,6.0,16.0,88,0.00,,,0.00,WUHU216DAVISVP2,2013-10-15 15:25:00,
2013-10-15 11:30:00,64.4,60.8,30.05,NW,305,8.0,16.0,88,0.00,,,0.00,WUHU216DAVISVP2,2013-10-15 15:30:00,
2013-10-15 11:35:00,64.5,60.9,30.05,North,2,5.0,16.0,88,0.00,,,0.00,WUHU216DAVISVP2,2013-10-15 15:35:00,
2013-10-15 11:40:00,64.9,61.3,30.05,NNE,15,12.0,16.0,88,0.00,,,0.00,WUHU216DAVISVP2,2013-10-15 15:40:00,
2013-10-15 11:45:00,65.1,61.1,30.05,North,358,4.0,14.0,87,0.00,,,0.00,WUHU216DAVISVP2,2013-10-15 15:45:00,
2013-10-15 11:50:00,65.2,61.2,30.05,NNW,328,4.0,13.0,87,0.00,,,0.00,WUHU216DAVISVP2,2013-10-15 15:50:00,
2013-10-15 11:55:00,65.4,61.4,30.04,North,2,6.0,13.0,87,0.00,,,0.00,WUHU216DAVISVP2,2013-10-15 15:55:00,
2013-10-15 12:00:00,65.6,61.3,30.04,NW,312,11.0,14.0,86,0.00,,,0.00,WUHU216DAVISVP2,2013-10-15 16:00:00,
2013-10-15 12:05:00,65.8,61.5,30.04,NW,316,7.0,15.0,86,0.00,,,0.00,WUHU216DAVISVP2,2013-10-15 16:05:00,
2013-10-15 12:10:00,66.1,61.5,30.04,NNE,26,5.0,15.0,85,0.00,,,0.00,WUHU216DAVISVP2,2013-10-15 16:10:00,
2013-10-15 12:15:00,66.0,61.4,30.04,NNE,27,8.0,15.0,85,0.00,,,0.00,WUHU216DAVISVP2,2013-10-15 16:15:00,
2013-10-15 12:20:00,66.4,62.1,30.04,NNE,23,7.0,15.0,86,0.00,,,0.00,WUHU216DAVISVP2,2013-10-15 16:20:00,
2013-10-15 12:25:00,66.5,61.9,30.04,North,8,12.0,16.0,85,0.00,,,0.00,WUHU216DAVISVP2,2013-10-15 16:25:00,
2013-10-15 12:30:00,66.4,61.8,30.04,NW,318,6.0,16.0,85,0.00,,,0.00,WUHU216DAVISVP2,2013-10-15 16:30:00,
2013-10-15 12:35:00,66.4,61.8,30.04,NW,310,7.0,16.0,85,0.00,,,0.00,WUHU216DAVISVP2,2013-10-15 16:35:00,
2013-10-15 12:40:00,66.6,61.9,30.03,NNW,339,3.0,18.0,85,0.00,,,0.00,WUHU216DAVISVP2,2013-10-15 16:40:00,
2013-10-15 12:45:00,67.2,62.2,30.03,NNW,327,6.0,18.0,84,0.00,,,0.00,WUHU216DAVISVP2,2013-10-15 16:45:00,
2013-10-15 12:50:00,66.9,61.9,30.03,NW,319,7.0,18.0,84,0.00,,,0.00,WUHU216DAVISVP2,2013-10-15 16:50:00,
2013-10-15 12:55:00,66.7,62.1,30.03,NW,321,5.0,18.0,85,0.00,,,0.00,WUHU216DAVISVP2,2013-10-15 16:55:00,
2013-10-15 13:00:00,66.6,62.0,30.03,WNW,303,6.0,14.0,85,0.00,,,0.00,WUHU216DAVISVP2,2013-10-15 17:00:00,
2013-10-15 13:05:00,66.4,62.1,30.02,NW,315,12.0,14.0,86,0.00,,,0.00,WUHU216DAVISVP2,2013-10-15 17:05:00,
2013-10-15 13:10:00,66.5,62.2,30.02,NW,323,11.0,14.0,86,0.00,,,0.00,WUHU216DAVISVP2,2013-10-15 17:10:00,
2013-10-15 13:15:00,66.7,62.4,30.02,NNE,21,6.0,14.0,86,0.00,,,0.00,WUHU216DAVISVP2,2013-10-15 17:15:00,
2013-10-15 13:20:00,67.2,62.9,30.01,North,5,1.0,14.0,86,0.00,,,0.00,WUHU216DAVISVP2,2013-10-15 17:20:00,
2013-10-15 13:25:00,67.4,62.8,30.01,WNW,298,6.0,13.0,85,0.00,,,0.00,WUHU216DAVISVP2,2013-10-15 17:25:00,
2013-10-15 13:30:00,67.5,62.9,30.01,WNW,289,10.0,13.0,85,0.00,,,0.00,WUHU216DAVISVP2,2013-10-15 17:30:00,
2013-10-15 13:35:00,67.6,63.0,30.01,NW,320,9.0,15.0,85,0.00,,,0.00,WUHU216DAVISVP2,2013-10-15 17:35:00,
2013-10-15 13:40:00,68.0,63.3,30.00,NNW,336,7.0,15.0,85,0.00,,,0.00,WUHU216DAVISVP2,2013-10-15 17:40:00,
2013-10-15 13:45:00,68.6,63.6,30.00,West,276,6.0,15.0,84,0.00,,,0.00,WUHU216DAVISVP2,2013-10-15 17:45:00,
2013-10-15 13:50:00,68.8,63.5,30.00,NNE,18,8.0,15.0,83,0.00,,,0.00,WUHU216DAVISVP2,2013-10-15 17:50:00,
2013-10-15 13:55:00,69.0,63.3,29.99,North,360,6.0,18.0,82,0.00,,,0.00,WUHU216DAVISVP2,2013-10-15 17:55:00,
2013-10-15 14:00:00,68.9,63.6,29.99,NW,304,12.0,18.0,83,0.00,,,0.00,WUHU216DAVISVP2,2013-10-15 18:00:00,
2013-10-15 14:05:00,68.5,63.5,29.99,North,353,4.0,18.0,84,0.00,,,0.00,WUHU216DAVISVP2,2013-10-15 18:05:00,
2013-10-15 14:10:00,68.9,63.5,29.99,NNW,333,8.0,18.0,83,0.00,,,0.00,WUHU216DAVISVP2,2013-10-15 18:10:00,
2013-10-15 14:15:00,69.0,64.0,29.98,WNW,283,8.0,16.0,84,0.00,,,0.00,WUHU216DAVISVP2,2013-10-15 18:15:00,
2013-10-15 14:20:00,69.0,64.0,29.98,NW,309,6.0,14.0,84,0.00,,,0.00,WUHU216DAVISVP2,2013-10-15 18:20:00,
2013-10-15 14:25:00,69.3,64.0,29.98,NW,321,5.0,13.0,83,0.00,,,0.00,WUHU216DAVISVP2,2013-10-15 18:25:00,
2013-10-15 14:30:00,69.7,64.4,29.98,NE,56,4.0,14.0,83,0.00,,,0.00,WUHU216DAVISVP2,2013-10-15 18:30:00,
2013-10-15 14:35:00,70.2,64.4,29.97,NNE,32,9.0,14.0,82,0.00,,,0.00,WUHU216DAVISVP2,2013-10-15 18:35:00,
2013-10-15 14:40:00,70.4,64.4,29.98,North,8,3.0,14.0,81,0.00,,,0.00,WUHU216DAVISVP2,2013-10-15 18:40:00,
2013-10-15 14:45:00,70.3,64.6,29.98,WNW,300,8.0,14.0,82,0.00,,,0.00,WUHU216DAVISVP2,2013-10-15 18:45:00,
2013-10-15 14:50:00,69.9,64.5,29.97,WNW,291,6.0,17.0,83,0.00,,,0.00,WUHU216DAVISVP2,2013-10-15 18:50:00,
2013-10-15 14:55:00,70.1,64.7,29.97,NNW,338,10.0,17.0,83,0.00,,,0.00,WUHU216DAVISVP2,2013-10-15 18:55:00,
2013-10-15 15:00:00,70.2,64.8,29.97,WNW,293,9.0,17.0,83,0.00,,,0.00,WUHU216DAVISVP2,2013-10-15 19:00:00,
2013-10-15 15:05:00,70.1,64.7,29.97,NW,304,6.0,17.0,83,0.00,,,0.00,WUHU216DAVISVP2,2013-10-15 19:05:00,
2013-10-15 15:10:00,70.1,64.7,29.97,NW,311,8.0,16.0,83,0.00,,,0.00,WUHU216DAVISVP2,2013-10-15 19:10:00,
2013-10-15 15:15:00,70.6,65.2,29.97,NW,325,6.0,15.0,83,0.00,,,0.00,WUHU216DAVISVP2,2013-10-15 19:15:00,
2013-10-15 15:20:00,70.3,64.9,29.97,NW,320,7.0,15.0,83,0.00,,,0.00,WUHU216DAVISVP2,2013-10-15 19:20:00,
2013-10-15 15:25:00,70.1,64.7,29.97,NNW,330,2.0,15.0,83,0.00,,,0.00,WUHU216DAVISVP2,2013-10-15 19:25:00,
2013-10-15 15:30:00,70.2,64.8,29.97,NW,312,9.0,15.0,83,0.00,,,0.00,WUHU216DAVISVP2,2013-10-15 19:30:00,
2013-10-15 15:35:00,70.5,65.1,29.97,NW,317,7.0,15.0,83,0.00,,,0.00,WUHU216DAVISVP2,2013-10-15 19:35:00,
2013-10-15 15:40:00,70.9,64.9,29.97,NW,312,9.0,15.0,81,0.00,,,0.00,WUHU216DAVISVP2,2013-10-15 19:40:00,
2013-10-15 15:45:00,70.9,65.2,29.97,WNW,289,8.0,15.0,82,0.00,,,0.00,WUHU216DAVISVP2,2013-10-15 19:45:00,
2013-10-15 15:50:00,70.7,65.0,29.97,NW,307,8.0,16.0,82,0.00,,,0.00,WUHU216DAVISVP2,2013-10-15 19:50:00,
2013-10-15 15:55:00,70.4,65.0,29.97,NNW,335,10.0,19.0,83,0.00,,,0.00,WUHU216DAVISVP2,2013-10-15 19:55:00,
2013-10-15 16:00:00,70.2,64.8,29.97,NW,306,11.0,19.0,83,0.00,,,0.00,WUHU216DAVISVP2,2013-10-15 20:00:00,
2013-10-15 16:05:00,70.3,64.9,29.97,NW,311,8.0,19.0,83,0.00,,,0.00,WUHU216DAVISVP2,2013-10-15 20:05:00,
2013-10-15 16:10:00,70.3,64.9,29.97,NW,322,9.0,19.0,83,0.00,,,0.00,WUHU216DAVISVP2,2013-10-15 20:10:00,
2013-10-15 16:15:00,70.3,64.6,29.97,NW,307,6.0,17.0,82,0.00,,,0.00,WUHU216DAVISVP2,2013-10-15 20:15:00,
2013-10-15 16:20:00,70.5,64.8,29.97,West,281,4.0,17.0,82,0.00,,,0.00,WUHU216DAVISVP2,2013-10-15 20:20:00,
2013-10-15 16:25:00,70.4,64.7,29.97,NW,326,8.0,17.0,82,0.00,,,0.00,WUHU216DAVISVP2,2013-10-15 20:25:00,
2013-10-15 16:30:00,70.2,64.8,29.97,NNW,347,5.0,18.0,83,0.00,,,0.00,WUHU216DAVISVP2,2013-10-15 20:30:00,
2013-10-15 16:35:00,70.3,64.6,29.97,NNW,332,7.0,18.0,82,0.00,,,0.00,WUHU216DAVISVP2,2013-10-15 20:35:00,
2013-10-15 16:40:00,70.2,64.4,29.97,NNW,338,6.0,18.0,82,0.00,,,0.00,WUHU216DAVISVP2,2013-10-15 20:40:00,
2013-10-15 16:45:00,70.1,64.3,29.97,NNE,20,9.0,18.0,82,0.00,,,0.00,WUHU216DAVISVP2,2013-10-15 20:45:00,
2013-10-15 16:50:00,70.2,64.4,29.97,NNE,12,10.0,15.0,82,0.00,,,0.00,WUHU216DAVISVP2,2013-10-15 20:50:00,
2013-10-15 16:55:00,70.0,64.3,29.97,NW,307,8.0,15.0,82,0.00,,,0.00,WUHU216DAVISVP2,2013-10-15 20:55:00,
2013-10-15 17:00:00,70.0,64.6,29.98,NNW,343,5.0,15.0,83,0.00,,,0.00,WUHU216DAVISVP2,2013-10-15 21:00:00,
2013-10-15 17:05:00,70.0,64.6,29.97,NW,311,3.0,15.0,83,0.00,,,0.00,WUHU216DAVISVP2,2013-10-15 21:05:00,
2013-10-15 17:10:00,69.7,64.4,29.97,WNW,301,4.0,15.0,83,0.00,,,0.00,WUHU216DAVISVP2,2013-10-15 21:10:00,
2013-10-15 17:15:00,69.6,64.3,29.97,NW,310,10.0,13.0,83,0.00,,,0.00,WUHU216DAVISVP2,2013-10-15 21:15:00,
2013-10-15 17:20:00,69.5,64.5,29.97,North,354,6.0,13.0,84,0.00,,,0.00,WUHU216DAVISVP2,2013-10-15 21:20:00,
2013-10-15 17:25:00,69.3,64.3,29.97,North,359,6.0,14.0,84,0.00,,,0.00,WUHU216DAVISVP2,2013-10-15 21:25:00,
2013-10-15 17:30:00,69.3,64.3,29.97,NNW,338,4.0,14.0,84,0.00,,,0.00,WUHU216DAVISVP2,2013-10-15 21:30:00,
2013-10-15 17:35:00,69.2,64.5,29.98,WNW,293,8.0,14.0,85,0.00,,,0.00,WUHU216DAVISVP2,2013-10-15 21:35:00,
2013-10-15 17:40:00,69.1,64.4,29.98,NNW,329,9.0,14.0,85,0.00,,,0.00,WUHU216DAVISVP2,2013-10-15 21:40:00,
2013-10-15 17:45:00,68.9,64.2,29.98,NW,326,5.0,12.0,85,0.00,,,0.00,WUHU216DAVISVP2,2013-10-15 21:45:00,
2013-10-15 17:50:00,68.8,64.1,29.98,WNW,297,7.0,14.0,85,0.00,,,0.00,WUHU216DAVISVP2,2013-10-15 21:50:00,
2013-10-15 17:55:00,68.7,64.4,29.98,North,7,8.0,14.0,86,0.00,,,0.00,WUHU216DAVISVP2,2013-10-15 21:55:00,
2013-10-15 18:00:00,68.6,64.3,29.98,NW,324,8.0,14.0,86,0.00,,,0.00,WUHU216DAVISVP2,2013-10-15 22:00:00,
2013-10-15 18:05:00,68.5,64.2,29.98,NW,317,6.0,14.0,86,0.00,,,0.00,WUHU216DAVISVP2,2013-10-15 22:05:00,
2013-10-15 18:10:00,68.4,64.4,29.99,NNW,328,6.0,14.0,87,0.00,,,0.00,WUHU216DAVISVP2,2013-10-15 22:10:00,
2013-10-15 18:15:00,68.3,64.3,29.99,WNW,297,14.0,15.0,87,0.00,,,0.00,WUHU216DAVISVP2,2013-10-15 22:15:00,
2013-10-15 18:20:00,68.1,64.1,29.99,North,8,7.0,15.0,87,0.00,,,0.00,WUHU216DAVISVP2,2013-10-15 22:20:00,
2013-10-15 18:25:00,68.0,64.0,29.99,WNW,302,10.0,15.0,87,0.00,,,0.00,WUHU216DAVISVP2,2013-10-15 22:25:00,
2013-10-15 18:30:00,67.9,64.2,29.99,NW,316,6.0,15.0,88,0.00,,,0.00,WUHU216DAVISVP2,2013-10-15 22:30:00,
2013-10-15 18:35:00,67.8,64.1,29.99,North,5,5.0,15.0,88,0.00,,,0.00,WUHU216DAVISVP2,2013-10-15 22:35:00,
2013-10-15 18:40:00,67.6,63.9,29.99,North,351,6.0,13.0,88,0.00,,,0.00,WUHU216DAVISVP2,2013-10-15 22:40:00,
2013-10-15 18:45:00,67.5,64.1,29.99,NW,314,6.0,13.0,89,0.00,,,0.00,WUHU216DAVISVP2,2013-10-15 22:45:00,
2013-10-15 18:50:00,67.3,63.9,29.99,NW,312,10.0,13.0,89,0.00,,,0.00,WUHU216DAVISVP2,2013-10-15 22:50:00,
2013-10-15 18:55:00,67.2,63.8,29.99,NNW,337,6.0,13.0,89,0.00,,,0.00,WUHU216DAVISVP2,2013-10-15 22:55:00,
2013-10-15 19:00:00,67.1,64.0,30.00,NE,38,5.0,13.0,90,0.00,,,0.00,WUHU216DAVISVP2,2013-10-15 23:00:00,
2013-10-15 19:05:00,67.1,64.0,30.00,NNE,22,5.0,13.0,90,0.00,,,0.00,WUHU216DAVISVP2,2013-10-15 23:05:00,
2013-10-15 19:10:00,67.0,63.9,30.00,NW,321,8.0,12.0,90,0.00,,,0.00,WUHU216DAVISVP2,2013-10-15 23:10:00,
2013-10-15 19:15:00,67.0,63.9,30.00,NNW,338,7.0,13.0,90,0.00,,,0.00,WUHU216DAVISVP2,2013-10-15 23:15:00,
2013-10-15 19:20:00,66.9,63.9,30.00,NW,321,5.0,13.0,90,0.00,,,0.00,WUHU216DAVISVP2,2013-10-15 23:20:00,
2013-10-15 19:25:00,66.8,64.1,30.00,NNW,330,7.0,13.0,91,0.00,,,0.00,WUHU216DAVISVP2,2013-10-15 23:25:00,
2013-10-15 19:30:00,66.8,64.1,30.00,NW,316,7.0,13.0,91,0.00,,,0.00,WUHU216DAVISVP2,2013-10-15 23:30:00,
2013-10-15 19:35:00,66.7,64.0,30.00,NW,321,8.0,12.0,91,0.00,,,0.00,WUHU216DAVISVP2,2013-10-15 23:35:00,
2013-10-15 19:40:00,66.7,64.3,30.00,NNW,338,8.0,12.0,92,0.00,,,0.00,WUHU216DAVISVP2,2013-10-15 23:40:00,
2013-10-15 19:45:00,66.7,64.3,30.00,NW,326,6.0,12.0,92,0.00,,,0.00,WUHU216DAVISVP2,2013-10-15 23:45:00,
2013-10-15 19:50:00,66.7,64.3,30.00,NW,309,3.0,12.0,92,0.00,,,0.00,WUHU216DAVISVP2,2013-10-15 23:50:00,
2013-10-15 19:55:00,66.7,64.3,30.00,NW,318,6.0,12.0,92,0.00,,,0.00,WUHU216DAVISVP2,2013-10-15 23:55:00,
2013-10-15 20:00:00,66.7,64.3,30.00,NNW,333,8.0,13.0,92,0.00,,,0.00,WUHU216DAVISVP2,2013-10-16 00:00:00,
2013-10-15 20:05:00,66.7,64.0,30.00,NE,37,5.0,13.0,91,0.00,,,0.00,WUHU216DAVISVP2,2013-10-16 00:05:00,
2013-10-15 20:10:00,66.7,64.0,30.00,NNE,18,6.0,13.0,91,0.00,,,0.00,WUHU216DAVISVP2,2013-10-16 00:10:00,
2013-10-15 20:15:00,66.8,64.1,30.00,NW,314,7.0,13.0,91,0.00,,,0.00,WUHU216DAVISVP2,2013-10-16 00:15:00,
2013-10-15 20:20:00,66.8,64.1,30.00,North,4,3.0,12.0,91,0.00,,,0.00,WUHU216DAVISVP2,2013-10-16 00:20:00,
2013-10-15 20:25:00,66.8,64.1,30.00,NW,314,5.0,12.0,91,0.00,,,0.00,WUHU216DAVISVP2,2013-10-16 00:25:00,
2013-10-15 20:30:00,66.8,64.1,30.00,NW,324,5.0,12.0,91,0.00,,,0.00,WUHU216DAVISVP2,2013-10-16 00:30:00,
2013-10-15 20:35:00,66.8,64.1,30.00,NW,308,4.0,12.0,91,0.00,,,0.00,WUHU216DAVISVP2,2013-10-16 00:35:00,
2013-10-15 20:40:00,66.7,64.3,30.00,NW,305,2.0,12.0,92,0.00,,,0.00,WUHU216DAVISVP2,2013-10-16 00:40:00,
2013-10-15 20:45:00,66.7,64.3,30.00,North,358,3.0,12.0,92,0.00,,,0.00,WUHU216DAVISVP2,2013-10-16 00:45:00,
2013-10-15 20:50:00,66.7,64.3,30.00,NNW,338,4.0,10.0,92,0.00,,,0.00,WUHU216DAVISVP2,2013-10-16 00:50:00,
2013-10-15 20:55:00,66.6,64.2,30.00,WNW,293,3.0,10.0,92,0.00,,,0.00,WUHU216DAVISVP2,2013-10-16 00:55:00,
2013-10-15 21:00:00,66.6,64.2,30.00,NW,307,2.0,10.0,92,0.00,,,0.00,WUHU216DAVISVP2,2013-10-16 01:00:00,
2013-10-15 21:05:00,66.7,64.3,30.00,NW,321,3.0,9.0,92,0.00,,,0.00,WUHU216DAVISVP2,2013-10-16 01:05:00,
2013-10-15 21:10:00,66.7,64.3,30.00,NNW,335,3.0,9.0,92,0.00,,,0.00,WUHU216DAVISVP2,2013-10-16 01:10:00,
2013-10-15 21:15:00,66.6,64.2,30.00,North,355,3.0,10.0,92,0.00,,,0.00,WUHU216DAVISVP2,2013-10-16 01:15:00,
2013-10-15 21:20:00,66.7,64.3,30.00,NNE,13,5.0,10.0,92,0.00,,,0.00,WUHU216DAVISVP2,2013-10-16 01:20:00,
2013-10-15 21:25:00,66.7,64.3,30.00,NNE,28,4.0,10.0,92,0.00,,,0.00,WUHU216DAVISVP2,2013-10-16 01:25:00,
2013-10-15 21:30:00,66.7,64.3,30.00,NNW,344,6.0,10.0,92,0.00,,,0.00,WUHU216DAVISVP2,2013-10-16 01:30:00,
2013-10-15 21:35:00,66.6,64.2,29.99,NW,320,3.0,9.0,92,0.00,,,0.00,WUHU216DAVISVP2,2013-10-16 01:35:00,
2013-10-15 21:40:00,66.4,64.0,29.99,NNW,329,5.0,9.0,92,0.00,,,0.00,WUHU216DAVISVP2,2013-10-16 01:40:00,
2013-10-15 21:45:00,66.4,64.0,29.99,North,7,2.0,9.0,92,0.00,,,0.00,WUHU216DAVISVP2,2013-10-16 01:45:00,
2013-10-15 21:50:00,66.3,63.9,29.99,North,350,2.0,9.0,92,0.00,,,0.00,WUHU216DAVISVP2,2013-10-16 01:50:00,
2013-10-15 21:55:00,66.2,63.8,29.99,WNW,288,4.0,12.0,92,0.00,,,0.00,WUHU216DAVISVP2,2013-10-16 01:55:00,
2013-10-15 22:00:00,66.0,63.6,29.99,NNW,333,4.0,12.0,92,0.00,,,0.00,WUHU216DAVISVP2,2013-10-16 02:00:00,
2013-10-15 22:05:00,65.9,63.8,29.99,NW,321,5.0,12.0,93,0.00,,,0.00,WUHU216DAVISVP2,2013-10-16 02:05:00,
2013-10-15 22:10:00,65.8,63.7,29.99,NW,304,5.0,12.0,93,0.00,,,0.00,WUHU216DAVISVP2,2013-10-16 02:10:00,
2013-10-15 22:15:00,65.7,63.6,29.99,NNW,335,5.0,9.0,93,0.00,,,0.00,WUHU216DAVISVP2,2013-10-16 02:15:00,
2013-10-15 22:20:00,65.7,63.6,29.99,North,358,2.0,8.0,93,0.00,,,0.00,WUHU216DAVISVP2,2013-10-16 02:20:00,
2013-10-15 22:25:00,65.6,63.5,29.99,NW,313,6.0,8.0,93,0.00,,,0.00,WUHU216DAVISVP2,2013-10-16 02:25:00,
2013-10-15 22:30:00,65.7,63.9,29.99,North,8,9.0,13.0,94,0.00,,,0.00,WUHU216DAVISVP2,2013-10-16 02:30:00,
2013-10-15 22:35:00,65.7,63.6,29.99,NNE,20,3.0,13.0,93,0.00,,,0.00,WUHU216DAVISVP2,2013-10-16 02:35:00,
2013-10-15 22:40:00,65.7,63.6,29.99,NE,53,4.0,13.0,93,0.00,,,0.00,WUHU216DAVISVP2,2013-10-16 02:40:00,
2013-10-15 22:45:00,65.8,63.7,29.99,NNW,342,5.0,13.0,93,0.00,,,0.00,WUHU216DAVISVP2,2013-10-16 02:45:00,
2013-10-15 22:50:00,65.9,63.8,29.99,North,8,5.0,10.0,93,0.00,,,0.00,WUHU216DAVISVP2,2013-10-16 02:50:00,
2013-10-15 22:55:00,65.9,63.8,29.99,NW,319,6.0,10.0,93,0.00,,,0.00,WUHU216DAVISVP2,2013-10-16 02:55:00,
2013-10-15 23:00:00,66.0,63.9,29.99,NW,316,6.0,13.0,93,0.00,,,0.00,WUHU216DAVISVP2,2013-10-16 03:00:00,
2013-10-15 23:05:00,66.0,63.9,29.99,NNW,341,2.0,13.0,93,0.00,,,0.00,WUHU216DAVISVP2,2013-10-16 03:05:00,
2013-10-15 23:10:00,66.0,63.9,29.99,NW,309,7.0,13.0,93,0.00,,,0.00,WUHU216DAVISVP2,2013-10-16 03:10:00,
2013-10-15 23:15:00,66.0,63.9,29.98,NW,321,5.0,13.0,93,0.00,,,0.00,WUHU216DAVISVP2,2013-10-16 03:15:00,
2013-10-15 23:20:00,66.0,63.9,29.99,NW,318,4.0,12.0,93,0.00,,,0.00,WUHU216DAVISVP2,2013-10-16 03:20:00,
2013-10-15 23:25:00,66.0,63.9,29.98,NW,307,2.0,12.0,93,0.00,,,0.00,WUHU216DAVISVP2,2013-10-16 03:25:00,
2013-10-15 23:30:00,65.9,63.8,29.99,NW,320,4.0,10.0,93,0.00,,,0.00,WUHU216DAVISVP2,2013-10-16 03:30:00,
2013-10-15 23:35:00,65.8,63.7,29.98,NW,309,1.0,9.0,93,0.00,,,0.00,WUHU216DAVISVP2,2013-10-16 03:35:00,
2013-10-15 23:40:00,65.7,63.6,29.98,WNW,298,3.0,9.0,93,0.00,,,0.00,WUHU216DAVISVP2,2013-10-16 03:40:00,
2013-10-15 23:45:00,65.7,63.9,29.98,NNW,330,4.0,9.0,94,0.00,,,0.00,WUHU216DAVISVP2,2013-10-16 03:45:00,
2013-10-15 23:50:00,65.7,63.9,29.98,NNW,327,4.0,10.0,94,0.00,,,0.00,WUHU216DAVISVP2,2013-10-16 03:50:00,
2013-10-15 23:55:00,65.7,63.9,29.98,NW,307,5.0,10.0,94,0.00,,,0.00,WUHU216DAVISVP2,2013-10-16 03:55:00,